Weather Roundup
Issued by NWS

Home | Current Version | Previous Version | Text Only | Print | Product List | Glossary On
Versions: 1 2 3 4 5 6 7 8 9 10 11 12 13 14 15 16 17 18 19 20 21 22 23 24 25 26 27 28 29 30 31 32 33 34 35 36 37 38 39 40 41 42 43 44 45 46 47 48 49 50
397
NZUS93 KARX 260559
HRRWXR

CURRENT HOURLY OBSERVATIONS ACROSS
MUCH OF THE UPPER MISSISSIPPI VALLEY
NATIONAL WEATHER SERVICE LA CROSSE WI
100 AM CDT MON JUN 26 2017


...SOUTHEAST MINNESOTA...


CITY           SKY/WX    TMP DP  RH WIND       PRES   REMARKS
ROCHESTER      CLEAR     51  45  79 W9        30.14S
ROCHESTER/MAYO MOCLDY    56  43  61 W9        30.13S
WINONA         CLEAR     54  50  87 CALM      30.12S
AUSTIN         PTCLDY    54  43  66 W3        30.14S
ALBERT LEA     CLEAR     54  46  76 CALM      30.16S
DODGE CENTER   PTCLDY    50  45  81 W7        30.14S
PRESTON        PTCLDY    52  42  68 W8        30.14S
OWATONNA       PTCLDY    54  46  76 W5        30.14F
FARIBAULT      PTCLDY    55  46  71 W7        30.14S
$$

...ELSEWHERE IN MINNESOTA...


CITY           SKY/WX    TMP DP  RH WIND       PRES   REMARKS
MINNEAPOLIS    PTCLDY    57  43  59 N5        30.14R
INTNL FALLS    PTCLDY    43  41  93 NW3       30.12F
DULUTH         CLEAR     43  42  97 NW5       30.10S
RED WING       CLEAR     48  45  87 CALM      30.11S
REDWOOD FALLS  PTCLDY    54  47  77 W5        30.18R
MANKATO        MOCLDY    55  48  77 W7        30.16S
WORTHINGTON    MOCLDY    54  51  90 W7        30.22F
FAIRMONT       CLOUDY    56  48  74 W7        30.18S
$$

...SOUTHWEST WISCONSIN...


CITY           SKY/WX    TMP DP  RH WIND       PRES   REMARKS
LA CROSSE      CLEAR     57  50  77 CALM      30.10F
PRAIRIE DU CHI CLEAR     50  46  87 E3        30.12F
BOSCOBEL       CLEAR     51  49  92 SW5       30.12S
LONE ROCK      NOT AVBL
PLATTEVILLE    CLEAR     53  49  87 W3        30.13S
FORT MC COY    CLEAR     46  45  99 CALM      30.12S
MAUSTON-NEW LI CLEAR     53  47  82 W6        30.08F
VIROQUA        FAIR      54  46  75 CALM      30.11S
WIS DELLS      PTCLDY    50  48  93 SW3       30.09F
$$

...ELSEWHERE IN WISCONSIN...


CITY           SKY/WX    TMP DP  RH WIND       PRES   REMARKS
MILWAUKEE      PTCLDY    59  53  80 W7        30.07F
MADISON        PTCLDY    54  51  90 CALM      30.09F
GREEN BAY      CLEAR     53  50  89 W8        30.02F
EAU CLAIRE     NOT AVBL
BLACK RVR FLS  FAIR      42  42 100 S3        30.09F FOG
MEDFORD        CLEAR     47  46  95 W6        30.06F
WAUSAU         CLEAR     49  48  97 W8        30.03F
WIS RAPIDS     CLEAR     50  46  86 W6        30.08F
MARSHFIELD     CLEAR     49  45  86 W6        30.06F
RICE LAKE      CLEAR     49  46  86 NW3       30.12S
$$

...NORTHEAST IOWA...


CITY           SKY/WX    TMP DP  RH WIND       PRES   REMARKS
WATERLOO       CLEAR     50  45  83 CALM      30.15F
DUBUQUE        CLEAR     51  45  79 CALM      30.14S
DECORAH        CLOUDY    54  45  71 CALM      30.12F
MASON CITY     MOCLDY    53  44  71 W9        30.18S
CHARLES CITY   CLEAR     52  46  82 W5        30.15F
OELWEIN        NOT AVBL
$$

...ELSEWHERE IN IOWA...


CITY           SKY/WX    TMP DP  RH WIND       PRES   REMARKS
DES MOINES     CLEAR     60  48  64 CALM      30.19F
IOWA CITY      CLEAR     54  45  71 W5        30.18S
FORT DODGE     PTCLDY    55  46  71 N6        30.20R
MARSHALLTOWN   CLEAR     54  46  74 W3        30.17F
CEDAR RAPIDS   CLEAR     53  45  74 NW3       30.15F
$$

...NORTHERN ILLINOIS...


CITY           SKY/WX    TMP DP  RH WIND       PRES   REMARKS
CHICAGO-OHARE  PTCLDY    57  49  74 W3        30.10F
CHICAGO-MIDWAY PTCLDY    60  50  69 W3        30.11S
MOLINE         PTCLDY    54  48  80 SW3       30.15S
ROCKFORD       CLEAR     55  50  83 W5        30.13F
PEORIA         CLEAR     55  51  86 CALM      30.16S
$$

NOTE: "FAIR" INDICATES FEW OR NO CLOUDS BELOW 12,000 FEET WITH NO
SIGNIFICANT WEATHER AND/OR OBSTRUCTIONS TO VISIBILITY. WIND
SPEEDS ARE IN MILES-PER-HOUR.




USA.gov is the U.S. government's official web portal to all federal, state and local government web resources and services.